User: anonymous
Location: PFO Observatory
(45.2937°N, 66.0991°W)
Time: 19:26:41
(UTC-03:00)
Language:

Cosmos 1151 Rocket - Orbit

View from above orbital plane
View from above orbital plane
View from above satellite
View from above satellite

Ground track
Ground track

The orbit data is extracted from the following two-line orbital elements,

1 11672U 80005B   14212.97842672  .00000439  00000-0  45938-4 0   760
2 11672 082.5178 351.2027 0016833 200.5296 299.0817 14.87199066867115
Epoch (UTC): 31 July 2014 23:28:56
Eccentricity: 0.0016833
inclination: 82.5178°
perigee height: 595 km
apogee height: 618 km
right ascension of ascending node: 351.2027°
argument of perigee: 200.5296°
revolutions per day: 14.87199066
mean anomaly at epoch: 299.0817°
orbit number at epoch: 86711

The dashed part of the orbit path shows where the satellite is in the earth's shadow,  

DLR